Location: The Saddle
(36.8333°N, 80.3417°W)
Time: 01:20:50
(UTC-05:00)

BlueWalker 3 - Visible Passes

Search period start: 06 December 2022 00:00
Search period end: 16 December 2022 00:00
Orbit: 501 x 518 km, 53.2° (Epoch: 05 December)

Date Brightness Start Highest point End Pass type
(mag) Time Alt. Az. Time Alt. Az. Time Alt. Az.
07 Dec 4.2 19:07:27 10° NNW 19:08:29 16° NNW 19:08:29 16° NNW visible
08 Dec 3.4 18:49:01 10° NNW 18:51:16 26° N 18:51:16 26° N visible
09 Dec 2.6 18:30:34 10° NNW 18:34:10 34° NE 18:34:14 34° NE visible
10 Dec 2.5 18:12:07 10° NNW 18:15:45 37° NE 18:17:28 24° E visible
10 Dec 4.8 19:51:05 10° WNW 19:52:21 17° W 19:52:21 17° W visible
11 Dec 2.4 17:53:40 10° NNW 17:57:21 39° NE 18:01:00 10° ESE visible
11 Dec 4.2 19:32:45 10° WNW 19:35:49 22° SW 19:36:01 22° SW visible
12 Dec 2.4 17:35:12 10° NW 17:38:56 42° NE 17:42:38 10° ESE visible
12 Dec 4.4 19:14:25 10° WNW 19:17:21 21° SW 19:20:16 10° S visible
13 Dec 4.7 18:56:05 10° W 18:58:54 19° SW 19:01:42 10° S visible
14 Dec 4.9 18:37:46 10° W 18:40:26 18° SW 18:43:05 10° S visible
15 Dec 5.1 18:19:27 10° W 18:21:58 17° SW 18:24:28 10° SSW visible
